Regional Weather Roundup
Issued by NWS Goodland, KS

Home | Current Version | Previous Version | Text Only | Print | Product List | Glossary Off
Versions: 1 2 3 4 5 6 7 8 9 10 11 12 13 14 15 16 17 18 19 20 21 22 23 24 25 26 27 28 29 30 31 32 33 34 35 36 37 38 39 40 41 42 43 44 45 46 47 48 49 50

000
ASUS43 KGLD 241859
RWRGLD

GOODLAND FORECAST AREA HOURLY WEATHER ROUNDUP
NATIONAL WEATHER SERVICE GOODLAND KS
100 PM MDT THU JUL 24 2014

...OFFICIAL OBSERVATIONS...

CITY           SKY/WX    TMP DP  RH WIND       PRES   REMARKS
GOODLAND KS    SUNNY     98  45  16 S18G30    30.00F
HILL CITY KS     N/A     96  68  39 S18G29    29.96  HX 101
IMPERIAL NEB   SUNNY    102  41  12 S25G32    29.92F
MCCOOK NEB     SUNNY     98  67  36 S18G24    29.92F HX 102
AKRON CO       SUNNY     98  45  16 VRB7      30.02F
BURLINGTON CO  SUNNY     97  41  14 S25G36    30.04F
LIMON CO       SUNNY     94  46  19 S15G25    30.10F
$$

...UNOFFICIAL OBSERVATIONS...

CITY           SKY/WX    TMP DP  RH WIND       PRES   REMARKS
COLBY KS       SUNNY     99  55  23 S21G26    29.99F
GOVE KS          N/A     96  32  10 MISG        N/A
LENORA KS        N/A     93  32  11 MISG        N/A
NORTON KS      SUNNY     95  61  31 SE14G21   29.95F
SHARON SPRINGS   N/A     99  52  20 SW20G33     N/A
KIT CARSON CO    N/A     99  45  15 N13G23      N/A
YUMA CO          N/A     99  48  17 SW6G17      N/A
$$



USA.gov is the U.S. government's official web portal to all federal, state and local government web resources and services.